{"data":{"norad_id":62362,"epoch":"2026-05-24T11:43:27.933600Z","epoch_age_seconds":115148,"freshness":"FRESH","line1":"1 62362U 24244A   26144.48851775 -.00000024  00000+0  00000+0 0  9992","line2":"2 62362   0.0699 353.0768 0006061  67.3363 299.6466  5.00115178 25342","mean_motion":5.00115178,"eccentricity":0.0006061,"inclination_deg":0.0699,"raan_deg":353.0768,"arg_perigee_deg":67.3363,"mean_anomaly_deg":299.6466,"bstar":0,"rev_number":2534,"period_min":287.93367275088,"perigee_km":8057.1418895069,"apogee_km":8074.6509468164,"semimajor_km":14444.033418162,"source":"CELESTRAK","updated_at":"2026-05-25T13:38:14.520769Z"}}